Overview Statistics Trail Chart Weather Telemetry Raw packets
 

This is the latest recevied weather packets stored in our database for station/object KC9DRE. If no packets are shown the sender has not sent any weather packets the latest 10 day(s).

<< 89 90 91 92 93 94 95 >>
Time Temp. Humidity Pressure Rain* Wind** Luminosity Snow
1777232512 21.11° C 61% 1015.7 hPa 0 mm - 717 W/m² -
1777232210 21.67° C 60% 1015.8 hPa 0 mm - 735 W/m² -
1777231905 21.11° C 62% 1015.8 hPa 0 mm - 741 W/m² -
1777231603 21.67° C 58% 1016.2 hPa 0 mm - 746 W/m² -
1777231299 21.11° C 59% 1016.3 hPa 0 mm - 755 W/m² -
1777230994 21.11° C 60% 1016.2 hPa 0 mm - 760 W/m² -
1777230691 20.56° C 61% 1016.2 hPa 0 mm - 774 W/m² -
1777230386 20.56° C 61% 1016.3 hPa 0 mm - 783 W/m² -
1777230083 21.11° C 60% 1016.2 hPa 0 mm - 789 W/m² -
1777229780 21.11° C 63% 1016.4 hPa 0 mm - 791 W/m² -
1777229477 21.11° C 62% 1016.3 hPa 0 mm - 806 W/m² -
1777229173 20.56° C 63% 1016.3 hPa 0 mm - 811 W/m² -
1777228871 20° C 63% 1016.3 hPa 0 mm - 818 W/m² -
1777228566 20.56° C 60% 1016.4 hPa 0 mm - 816 W/m² -
1777228263 20.56° C 65% 1016.8 hPa 0 mm - 820 W/m² -
1777227962 20° C 64% 1016.6 hPa 0 mm - 826 W/m² -
1777227657 19.44° C 64% 1016.6 hPa 0 mm - 835 W/m² -
1777227353 19.44° C 65% 1016.7 hPa 0 mm - 836 W/m² -
1777227050 19.44° C 69% 1016.7 hPa 0 mm - 840 W/m² -
1777226745 19.44° C 69% 1017 hPa 0 mm - 843 W/m² -
1777226440 18.89° C 69% 1016.8 hPa 0 mm - 850 W/m² -
1777226136 18.89° C 72% 1017 hPa 0 mm - 853 W/m² -
1777225833 18.33° C 72% 1016.9 hPa 0 mm - 857 W/m² -
1777225528 18.89° C 67% 1017.1 hPa 0 mm - 862 W/m² -
1777225226 18.89° C 71% 1017.2 hPa 0 mm - 849 W/m² -

* Rain latest hour (hover to see other rain measurements)
** Current wind speed in m/s (hover to see current wind gust speed)